EA5EN Weather Reports


time (UTC)temp
F
wind
direction
speed
knots
gust
knots
rain 1hr
in
rain 24hr
in
rain mn
in
humidity
%
barometer
mb
20260508111107 64 2 0.9 3.5 0.00 0.07 0.05 73 1014.0
20260508110101 64 50 1.7 3.5 0.00 0.07 0.05 74 1014.3
20260508105115 62 23 0.9 1.7 0.00 0.08 0.05 79 1014.5
20260508104050 61 0 0.0 1.7 0.00 0.08 0.05 84 1014.5
20260508103044 60 248 0.9 1.7 0.00 0.09 0.05 88 1014.9
20260508102039 59 270 0.9 1.7 0.00 0.09 0.05 89 1014.9
20260508101033 59 293 0.9 1.7 0.02 0.09 0.05 91 1014.8
20260508100028 58 315 0.9 1.7 0.04 0.09 0.05 91 1014.7
20260508095023 58 270 0.9 3.5 0.05 0.09 0.05 93 1014.8
20260508094018 58 336 0.0 1.7 0.05 0.09 0.05 92 1014.2
20260508093113 57 308 0.9 1.7 0.05 0.09 0.05 91 1014.4
20260508092107 57 70 0.9 3.5 0.05 0.09 0.05 91 1014.3
20260508091101 57 248 0.9 3.5 0.02 0.07 0.02 89 1014.6
20260508090056 58 255 1.7 3.5 0.01 0.06 0.01 89 1014.8
20260508085051 58 289 1.7 3.5 0.00 0.05 0.00 88 1014.7
20260508084046 58 277 1.7 1.7 0.00 0.05 0.00 87 1014.5
20260508083041 57 293 0.9 3.5 0.00 0.05 0.00 87 1014.3
20260508082036 58 270 0.9 3.5 0.00 0.05 0.00 87 1014.3
20260508081111 57 282 1.7 3.5 0.00 0.05 0.00 88 1014.3
20260508080026 57 255 1.7 3.5 0.00 0.05 0.00 88 1013.9
20260508075021 57 261 1.7 3.5 0.00 0.05 0.00 87 1013.7
20260508074115 57 261 2.6 5.2 0.00 0.05 0.00 87 1013.7
20260508073110 57 304 1.7 3.5 0.00 0.05 0.00 88 1013.7
20260508072126 57 315 1.7 5.2 0.00 0.05 0.00 88 1013.3
20260508071059 57 273 2.6 3.5 0.00 0.05 0.00 87 1013.4
20260508070054 57 281 2.6 3.5 0.00 0.05 0.00 87 1013.3
20260508065049 58 270 2.6 5.2 0.00 0.05 0.00 86 1013.3
20260508064044 57 295 1.7 3.5 0.00 0.05 0.00 87 1013.0
20260508063038 57 272 1.7 3.5 0.00 0.05 0.00 88 1013.0
20260508062032 56 261 1.7 3.5 0.00 0.05 0.00 90 1013.2
20260508061048 55 252 1.7 3.5 0.00 0.05 0.00 90 1013.0
20260508060022 55 262 1.7 3.5 0.00 0.05 0.00 91 1012.9
20260508055017 54 310 1.7 3.5 0.00 0.05 0.00 91 1012.5
20260508054132 54 282 1.7 3.5 0.00 0.05 0.00 91 1012.6
20260508053107 54 293 1.7 3.5 0.00 0.05 0.00 91 1012.4
20260508052122 54 312 0.9 1.7 0.00 0.05 0.00 92 1012.5
20260508051056 55 0.0 0.0 0.00 0.05 0.00 93 1012.6
20260508050051 54 315 0.9 1.7 0.00 0.05 0.00 92 1012.3
20260508045046 54 310 0.9 3.5 0.00 0.05 0.00 92 1012.2
20260508044041 54 315 2.6 5.2 0.00 0.05 0.00 93 1012.3
20260508043036 54 270 0.9 3.5 0.00 0.05 0.00 93 1012.5
20260508042030 54 270 0.9 1.7 0.00 0.05 0.00 93 1012.4
20260508041025 54 270 1.7 3.5 0.00 0.05 0.00 93 1012.3
20260508040020 54 312 0.9 3.5 0.00 0.05 0.00 93 1012.3
20260508035115 54 276 0.9 3.5 0.00 0.05 0.00 93 1012.2
20260508034110 54 306 1.7 1.7 0.00 0.05 0.00 93 1011.9
20260508033105 54 293 0.9 1.7 0.00 0.05 0.00 94 1011.9
20260508032119 54 261 0.9 1.7 0.00 0.05 0.00 93 1012.2
20260508031134 55 263 0.9 1.7 0.00 0.05 0.00 93 1012.3
20260508030048 55 248 0.9 1.7 0.00 0.05 0.00 93 1012.5
20260508025043 55 263 1.7 3.5 0.00 0.05 0.00 93 1012.6
20260508024038 55 270 1.7 3.5 0.00 0.05 0.00 92 1012.5
20260508023033 55 270 1.7 3.5 0.00 0.05 0.00 92 1012.7
20260508022028 55 270 0.9 1.7 0.00 0.05 0.00 92 1012.5
20260508021043 55 293 1.7 3.5 0.00 0.05 0.00 92 1012.5
20260508020017 55 312 1.7 3.5 0.00 0.05 0.00 92 1012.6
20260508015132 55 315 1.7 5.2 0.00 0.05 0.00 93 1012.6
20260508014107 55 306 1.7 5.2 0.00 0.05 0.00 93 1012.7
20260508013101 56 302 1.7 3.5 0.00 0.05 0.00 93 1012.9
20260508012055 56 315 0.9 1.7 0.00 0.05 0.00 93 1012.9
20260508011050 56 0.0 1.7 0.00 0.05 0.00 93 1013.2
20260508010045 56 315 0.0 1.7 0.00 0.05 0.00 93 1013.2
20260508005040 56 315 0.9 3.5 0.00 0.05 0.00 93 1013.3
20260508004035 56 0.0 1.7 0.00 0.05 0.00 93 1013.4
20260508003030 56 315 0.9 1.7 0.00 0.05 0.00 93 1013.5
20260508002024 56 315 0.0 1.7 0.00 0.05 0.00 93 1013.6
20260508001019 56 315 0.9 1.7 0.00 0.05 0.00 93 1013.7
20260508000115 56 315 0.9 1.7 0.00 0.05 0.00 93 1013.7
20260507235110 56 315 1.7 3.5 0.00 0.05 0.00 93 1013.8
20260507234105 56 315 0.0 1.7 0.00 0.05 0.00 92 1013.8
20260507233058 57 315 0.9 1.7 0.00 0.05 0.00 92 1014.1
20260507232052 56 315 0.9 3.5 0.00 0.05 0.00 91 1014.1
20260507231107 57 338 0.0 1.7 0.00 0.05 0.00 91 1014.1
20260507230041 57 338 0.0 1.7 0.00 0.05 0.00 90 1014.1
20260507225036 57 338 0.0 1.7 0.00 0.05 0.00 89 1014.2
20260507224031 58 0 0.0 1.7 0.00 0.05 0.00 89 1014.2
20260507223025 58 0.0 1.7 0.00 0.05 0.00 88 1014.2
20260507222019 58 0.0 1.7 0.00 0.05 0.00 87 1014.1
20260507221115 58 0.0 0.0 0.00 0.05 0.00 88 1014.2
20260507220109 58 23 0.0 1.7 0.00 0.05 0.00 88 1014.0
20260507215124 58 0.0 1.7 0.00 0.05 0.05 88 1013.9
20260507214057 58 23 0.9 1.7 0.00 0.05 0.05 87 1013.9
20260507213112 58 23 1.7 3.5 0.00 0.05 0.05 86 1013.9
20260507212047 59 41 1.7 3.5 0.00 0.05 0.05 84 1013.8
20260507211103 59 45 1.7 3.5 0.00 0.05 0.05 84 1013.5
20260507210037 59 45 0.9 3.5 0.00 0.05 0.05 84 1013.5
20260507205032 59 63 3.5 5.2 0.00 0.05 0.05 85 1013.4
20260507204027 60 23 0.9 1.7 0.00 0.05 0.05 84 1013.5
20260507203022 60 23 1.7 3.5 0.00 0.05 0.05 84 1013.4
20260507202016 60 50 0.9 3.5 0.00 0.05 0.05 83 1013.3
20260507201112 61 48 2.6 5.2 0.00 0.05 0.05 83 1013.0
20260507200107 61 50 2.6 6.1 0.00 0.05 0.05 82 1013.1
20260507195056 61 77 3.5 7.0 0.00 0.05 0.05 81 1013.1
20260507194051 61 53 2.6 3.5 0.00 0.05 0.05 80 1012.8
20260507193041 61 90 1.7 3.5 0.00 0.05 0.05 79 1012.5
20260507192032 62 78 2.6 3.5 0.00 0.05 0.05 80 1012.3
20260507191026 62 82 2.6 5.2 0.00 0.05 0.05 79 1012.3
20260507190017 62 53 1.7 5.2 0.00 0.05 0.05 78 1012.2
20260507185106 63 68 2.6 5.2 0.00 0.05 0.05 76 1012.1
20260507184055 63 20 1.7 7.0 0.00 0.05 0.05 73 1011.9
20260507183050 64 15 0.9 3.5 0.00 0.05 0.05 73 1011.8
20260507182040 63 8 2.6 7.0 0.00 0.05 0.05 73 1011.6
20260507181031 63 12 1.7 3.5 0.00 0.05 0.05 73 1011.5
20260507180026 63 43 2.6 5.2 0.00 0.05 0.05 72 1011.5
20260507175016 64 27 0.9 3.5 0.00 0.05 0.05 71 1011.4
20260507174106 65 296 1.7 3.5 0.00 0.05 0.05 71 1011.5
20260507173056 65 301 4.3 9.6 0.00 0.05 0.05 70 1011.4
20260507172051 64 315 3.5 9.6 0.00 0.05 0.05 72 1011.6
20260507171040 63 303 2.6 7.0 0.00 0.05 0.05 79 1011.4
20260507170050 63 302 1.7 7.0 0.00 0.05 0.05 77 1011.3
20260507165019 64 294 1.7 5.2 0.00 0.05 0.05 78 1011.3
20260507164114 63 304 1.7 6.1 0.00 0.05 0.05 79 1011.1
20260507163102 62 310 5.2 9.6 0.00 0.05 0.05 79 1011.2
20260507162051 62 297 3.5 7.8 0.00 0.05 0.05 77 1011.0
20260507161041 62 310 4.3 9.6 0.00 0.05 0.05 78 1010.9
20260507160030 63 315 5.2 9.6 0.00 0.05 0.05 77 1010.8
20260507155019 62 304 6.1 12.2 0.00 0.05 0.05 80 1010.9
20260507154114 62 303 4.3 7.8 0.00 0.05 0.05 82 1010.9
20260507153103 62 310 4.3 9.6 0.00 0.05 0.05 81 1011.1
20260507152053 63 311 2.6 6.1 0.00 0.05 0.05 79 1010.9
20260507151044 63 322 3.5 6.1 0.00 0.05 0.05 77 1011.0
20260507150039 63 293 6.1 9.6 0.00 0.05 0.05 79 1011.0
20260507145027 0 0.0 0.0 0.00 0.05 0.05 1010.8
20260507144016 0 0.0 0.0 0.00 0.05 0.05 1010.8
20260507143106 64 23 2.6 3.5 0.00 0.05 0.05 85 1011.0
20260507142055 64 19 2.6 3.5 0.00 0.05 0.05 85 1010.9
20260507141050 64 310 2.6 5.2 0.00 0.05 0.05 87 1010.8
20260507140040 0 0.0 0.0 0.00 0.05 0.05 1010.9
20260507135031 63 180 2.6 3.5 0.00 0.05 0.05 88 1010.9
20260507134026 63 215 2.6 5.2 0.01 0.05 0.05 88 1011.0
20260507133016 64 229 3.5 6.1 0.02 0.05 0.05 88 1010.9
20260507132106 65 203 3.5 5.2 0.02 0.05 0.05 86 1010.9
20260507131056 65 248 1.7 3.5 0.02 0.05 0.05 88 1011.0
20260507130051 65 248 1.7 3.5 0.02 0.05 0.05 88 1011.1
20260507125040 64 225 0.0 1.7 0.02 0.05 0.05 88 1011.2
20260507124030 64 224 0.9 1.7 0.01 0.04 0.04 88 1011.3
20260507123019 64 303 2.6 6.1 0.00 0.02 0.02 90 1011.3
20260507122114 64 309 2.6 5.2 0.00 0.02 0.02 88 1011.6
20260507121125 65 253 2.6 7.0 0.00 0.02 0.02 87 1011.5
20260507120115 66 102 2.6 6.1 0.00 0.02 0.02 79 1011.5
20260507115050 66 113 3.5 6.1 0.01 0.02 0.02 77 1011.6
20260507114041 67 87 3.5 6.1 0.01 0.02 0.02 74 1011.5
20260507113031 66 73 3.5 7.8 0.02 0.02 0.02 76 1011.7
20260507112026 66 82 3.5 9.6 0.02 0.02 0.02 76 1011.8